Content
SEND FEEDBACK

Daily
Averages
Monthly
Summary
United States of America

ASHEVILLE, NORTH CAROLINA


Home > North America > United States > North Carolina
Elevation: 2240 feet     Latitude: 35 36N     Longitude: 082 32W

WEATHER
 
SELECT A DAY
Number of Records: 228,713;   Date Range: 1/1/95 - 9/29/14
 
SHARE

PRINT THIS DATA

[ ← Previous Day ]
WEATHER ALMANAC - FEBRUARY 12, 2013
[ Next Day → ]
[ °C ]   °F
Weather ElementAverageHighLow
Temperature45 °F52 °F (1:54 pm)39.9 °F (6:54 am)
Dewpoint26.8 °F37.9 °F (8:54 pm)23 °F (4:54 am)
Humidity52.1 %93 % (11:54 pm)32 % (1:54 pm)
Barometer30.02 in30.10 in (7:54 am)29.93 in (5:54 pm)
Wind Speed8.7 mph26.5 mph (9:54 am)
Wind Gust31.1 mph (9:54 am)
Weather ElementAverage
Visibility9.9 mi
Wind DirectionWSW (263 °)

Weather ElementTotal
Precipitation0.08 in
Heating Degree Days19.1 (Base 65)
Averaged from 23 records on February 12, 2013
WEATHER CONDITIONS BREAKOUT
WIND DIRECTION BREAKOUT
WEATHER BY HOUR - FEBRUARY 12, 2013
[ °C ]   °F
Local TimeTemperatureDewpointHumidityBarometerVisibilityWind DirectionWind SpeedGust SpeedPrecipitationEventsConditions
1:54 AM44.1 °F30.0 °F58 %30.04 in10.0 miNNW (330°)10.4 mphClear
2:54 AM43.0 °F26.1 °F51 %30.06 in10.0 miNNW (340°)15.0 mph24.2 mphClear
3:54 AM42.1 °F24.1 °F49 %30.05 in10.0 miNorth (350°)15.0 mph23.0 mphClear
4:54 AM41.0 °F23.0 °F49 %30.06 in10.0 miNorth (350°)15.0 mph21.9 mphClear
5:54 AM41.0 °F23.0 °F49 %30.06 in10.0 miNorth (350°)12.7 mph21.9 mphClear
6:54 AM39.9 °F23.0 °F51 %30.06 in10.0 miNorth (360°)12.7 mph23.0 mphClear
7:54 AM39.9 °F23.0 °F51 %30.10 in10.0 miNorth (350°)15.0 mph24.2 mphClear
8:54 AM42.1 °F23.0 °F47 %30.09 in10.0 miNorth (350°)15.0 mph26.5 mphClear
9:54 AM44.1 °F24.1 °F45 %30.09 in10.0 miNNW (340°)26.5 mph31.1 mphClear
10:54 AM46.9 °F23.0 °F39 %30.08 in10.0 miNorth (350°)13.8 mph18.4 mphClear
11:54 AM50.0 °F23.0 °F35 %30.05 in10.0 miNorth (10°)8.1 mphClear
12:54 PM51.1 °F23.0 °F33 %30.04 in10.0 miNW (320°)5.8 mphClear
1:54 PM52.0 °F23.0 °F32 %30.02 in10.0 miNorth (350°)4.6 mphClear
2:54 PM52.0 °F23.0 °F32 %30.00 in10.0 miCalmClear
3:54 PM52.0 °F23.0 °F32 %30.02 in10.0 miNorth (350°)5.8 mphScattered Clouds
4:54 PM50.0 °F24.1 °F36 %29.99 in10.0 miNNW (340°)4.6 mphOvercast
5:54 PM48.9 °F24.1 °F38 %29.93 in10.0 miCalm0.00 inOvercast
6:54 PM48.0 °F25.0 °F41 %29.95 in10.0 miWNW (290°)4.6 mphOvercast
7:54 PM42.1 °F37.0 °F82 %29.99 in10.0 miCalm0.02 inRainLight Rain
8:54 PM42.1 °F37.9 °F85 %30.00 in10.0 miNorth (350°)9.2 mph0.04 inRainLight Rain
9:54 PM41.0 °F36.0 °F82 %29.98 in10.0 miNorth (360°)3.5 mph0.00 inOvercast
10:54 PM41.0 °F37.9 °F89 %29.94 in10.0 miCalm0.00 inOvercast
11:54 PM39.9 °F37.9 °F93 %29.94 in8.0 miSSW (210°)3.5 mph0.02 inRainLight Rain
Hourly data recorded from KAVL, located miles away from Asheville, North Carolina







STORIES FROM OUR PARTNERS